Find Starlink 36807

NORAD ID: 67810 Int'l Des: 2026-032 Owner: SPXS Country: US Constellation: starlink operational
LEOCIRCULARRETROGRADE

現在のビュー

3D地球を読み込み中...

Starlink 36807について

説明を読み込み中...

次回通過

Passes for default location (London). Set your location on the main map for personalized predictions.

高度履歴

Loading altitude history...

軌道要素

1 67810U 26032P 26146.08917671 .00026361 00000-0 81586-3 0 9992
2 67810 97.2858 334.1896 0001445 89.6549 270.4860 15.33450322 16824
Epoch: May 26, 2026 • Age: 10 hours

現在のステータス

高度 477.6 km
速度 7.63 km/s
衛星直下点 76.99°N, 121.07°W
打ち上げ日 Feb 15, 2026
運用期間 0.2 years
タイプ internet

技術仕様

分類 Payload
質量 575.00 kg
乾燥質量 530.00 kg
総質量 575.00 kg
長さ 0.30 m
直径 4.10 m
スパン 29.00 m
形状 Box + pan
製造者 SPXS
バスタイプ Starlink V2MO
フェーズステータス In Orbit
所有者/国 SPXS/US

Most Searched